KNE205 OERK-OMDB

Flight info

Callsign KNE205
Flight time 1h 7m
Altitude 39000
Route AMBAG M321 SITUK/N0392F290 M321 BOSOB Y511 MEDPO Q332 PEKEM M628 RIGIL G783 ASPED Q308 KIPOK/N0424F340 Q568 IMPED
Aircraft A20N/M-SDE2E3FGHIRWXY/LB1

Departure

Time 2026-04-23 14:32
Airport King Khalid International Airport (OERK)

Arrival

Time 2026-04-23 15:40
Airport Dubai International Airport (OMDB)
Time Latitude Longitude Altitude Speed Heading
2026-04-23 13:21 24.94569 46.71553 2062 ft 0 kts 240°
2026-04-23 14:19 24.94571 46.71557 2037 ft 3 kts 240°
2026-04-23 14:20 24.94585 46.71583 2037 ft 4 kts 237°
2026-04-23 14:20 24.94600 46.71607 2035 ft 4 kts 232°
2026-04-23 14:20 24.94611 46.71623 2034 ft 4 kts 226°
2026-04-23 14:20 24.94632 46.71641 2034 ft 4 kts 193°
2026-04-23 14:21 24.94647 46.71640 2035 ft 1 kts 150°
2026-04-23 14:21 24.94648 46.71639 2036 ft 0 kts 150°
2026-04-23 14:26 24.94649 46.71639 2034 ft 0 kts 150°
2026-04-23 14:28 24.94640 46.71644 2037 ft 2 kts 152°
2026-04-23 14:28 24.94617 46.71659 2034 ft 5 kts 151°
2026-04-23 14:29 24.94573 46.71682 2034 ft 9 kts 154°
2026-04-23 14:29 24.94512 46.71725 2034 ft 12 kts 147°
2026-04-23 14:29 24.94432 46.71777 2036 ft 15 kts 148°
2026-04-23 14:29 24.94376 46.71813 2034 ft 7 kts 136°
2026-04-23 14:30 24.94379 46.71870 2033 ft 9 kts 57°
2026-04-23 14:30 24.94402 46.71914 2035 ft 0 kts 58°
2026-04-23 14:30 24.94407 46.71925 2031 ft 3 kts 64°
2026-04-23 14:30 24.94416 46.71955 2034 ft 0 kts 76°
2026-04-23 14:31 24.94420 46.71965 2032 ft 3 kts 71°
2026-04-23 14:31 24.94436 46.72001 2031 ft 7 kts 57°
2026-04-23 14:31 24.94477 46.72057 2027 ft 12 kts 54°
2026-04-23 14:31 24.94533 46.72151 2026 ft 17 kts 48°
2026-04-23 14:32 24.94677 46.72103 2027 ft 46 kts 330°
2026-04-23 14:32 24.95150 46.71800 2024 ft 108 kts 329°
2026-04-23 14:32 24.95956 46.71307 2028 ft 154 kts 332°
2026-04-23 14:32 24.96839 46.70683 2681 ft 145 kts 325°
2026-04-23 14:33 24.97737 46.70028 2983 ft 170 kts 335°
2026-04-23 14:33 24.98874 46.69386 3623 ft 193 kts 340°
2026-04-23 14:33 25.00173 46.68820 4478 ft 211 kts 345°
2026-04-23 14:33 25.01633 46.68317 5267 ft 229 kts 346°
2026-04-23 14:34 25.03221 46.67795 6066 ft 248 kts 342°
2026-04-23 14:34 25.04939 46.67210 6858 ft 269 kts 340°
2026-04-23 14:34 25.06795 46.66540 7531 ft 291 kts 339°
2026-04-23 14:34 25.08839 46.65910 7880 ft 324 kts 351°
2026-04-23 14:35 25.11205 46.66061 8000 ft 362 kts 13°
2026-04-23 14:35 25.13737 46.66916 8009 ft 397 kts 19°
2026-04-23 14:35 25.16405 46.68048 8203 ft 421 kts 27°
2026-04-23 14:35 25.18787 46.69909 9213 ft 417 kts 45°
2026-04-23 14:36 25.20528 46.72393 10574 ft 405 kts 62°
2026-04-23 14:36 25.21484 46.75213 11942 ft 391 kts 81°
2026-04-23 14:36 25.21614 46.78160 13172 ft 384 kts 100°
2026-04-23 14:36 25.20957 46.81030 13973 ft 387 kts 114°
2026-04-23 14:37 25.20083 46.83860 14788 ft 393 kts 111°
2026-04-23 14:37 25.19182 46.86721 15660 ft 395 kts 116°
2026-04-23 14:37 25.18047 46.89496 16493 ft 397 kts 122°
2026-04-23 14:37 25.16654 46.92135 17313 ft 402 kts 124°
2026-04-23 14:38 25.15266 46.94839 18142 ft 408 kts 123°
2026-04-23 14:38 25.13888 46.97603 18868 ft 413 kts 122°
2026-04-23 14:38 25.12499 47.00407 19497 ft 421 kts 122°
2026-04-23 14:38 25.11086 47.03251 20209 ft 425 kts 122°
2026-04-23 14:39 25.09653 47.06123 20900 ft 429 kts 122°
2026-04-23 14:39 25.08201 47.09022 21617 ft 433 kts 122°
2026-04-23 14:39 25.06736 47.11943 22274 ft 438 kts 122°
2026-04-23 14:39 25.05249 47.14904 22901 ft 443 kts 122°
2026-04-23 14:40 25.03767 47.17852 23520 ft 448 kts 122°
2026-04-23 14:40 25.02246 47.20876 24020 ft 453 kts 122°
2026-04-23 14:40 25.00710 47.23931 24523 ft 457 kts 122°
2026-04-23 14:40 24.99162 47.27006 25016 ft 461 kts 122°
2026-04-23 14:41 24.97601 47.30107 25477 ft 464 kts 122°
2026-04-23 14:41 24.96027 47.33229 25888 ft 468 kts 122°
2026-04-23 14:41 24.94445 47.36369 26356 ft 470 kts 122°
2026-04-23 14:41 24.92750 47.39460 26728 ft 471 kts 128°
2026-04-23 14:42 24.90721 47.42303 27060 ft 472 kts 136°
2026-04-23 14:42 24.88402 47.44858 27464 ft 472 kts 141°
2026-04-23 14:42 24.86008 47.47360 27837 ft 476 kts 141°
2026-04-23 14:42 24.83605 47.49886 28226 ft 479 kts 141°
2026-04-23 14:43 24.81213 47.52404 28607 ft 482 kts 141°
2026-04-23 14:43 24.78783 47.54964 28944 ft 486 kts 141°
2026-04-23 14:43 24.76333 47.57543 29282 ft 489 kts 141°
2026-04-23 14:43 24.73862 47.60142 29620 ft 492 kts 141°
2026-04-23 14:44 24.71381 47.62748 29961 ft 495 kts 141°
2026-04-23 14:44 24.68877 47.65377 30273 ft 498 kts 141°
2026-04-23 14:44 24.66364 47.68014 30590 ft 500 kts 141°
2026-04-23 14:44 24.63839 47.70663 30907 ft 502 kts 141°
2026-04-23 14:45 24.61302 47.73324 31200 ft 505 kts 141°
2026-04-23 14:45 24.58753 47.75985 31573 ft 504 kts 143°
2026-04-23 14:45 24.56081 47.78375 31999 ft 497 kts 150°
2026-04-23 14:45 24.53191 47.80401 32440 ft 489 kts 158°
2026-04-23 14:46 24.50154 47.82032 32797 ft 483 kts 164°
2026-04-23 14:46 24.47062 47.83465 33182 ft 482 kts 164°
2026-04-23 14:46 24.43976 47.84906 33592 ft 481 kts 164°
2026-04-23 14:46 24.40896 47.86349 33941 ft 481 kts 164°
2026-04-23 14:47 24.37825 47.87790 34270 ft 480 kts 165°
2026-04-23 14:47 24.34755 47.89230 34556 ft 480 kts 165°
2026-04-23 14:47 24.31679 47.90672 34834 ft 480 kts 165°
2026-04-23 14:47 24.28603 47.92113 35099 ft 480 kts 165°
2026-04-23 14:48 24.25528 47.93552 35381 ft 480 kts 165°
2026-04-23 14:48 24.22459 47.94988 35655 ft 480 kts 165°
2026-04-23 14:48 24.19383 47.96427 35908 ft 480 kts 165°
2026-04-23 14:48 24.16317 47.97860 36160 ft 480 kts 165°
2026-04-23 14:49 24.13237 47.99298 36412 ft 480 kts 165°
2026-04-23 14:49 24.10220 48.00707 36652 ft 480 kts 165°
2026-04-23 14:49 24.05258 48.03021 36895 ft 484 kts 166°
2026-04-23 14:49 23.98990 48.05935 36881 ft 495 kts 165°
2026-04-23 14:50 23.86729 48.13463 36870 ft 534 kts 140°
2026-04-23 14:50 23.76905 48.25929 36862 ft 542 kts 136°
2026-04-23 14:51 23.66947 48.38345 36833 ft 544 kts 136°
2026-04-23 14:51 23.56944 48.50728 36843 ft 544 kts 136°
2026-04-23 14:52 23.46971 48.63047 36835 ft 545 kts 136°
2026-04-23 14:52 23.37212 48.75094 36826 ft 502 kts 137°
2026-04-23 14:53 23.27832 48.86601 36831 ft 512 kts 137°
2026-04-23 14:53 23.18379 48.98198 36818 ft 511 kts 137°
2026-04-23 14:54 23.08923 49.09769 36810 ft 512 kts 137°
2026-04-23 14:54 22.99439 49.21350 36806 ft 512 kts 137°
2026-04-23 14:55 22.89947 49.32910 36796 ft 512 kts 137°
2026-04-23 14:55 22.80452 49.44451 36795 ft 512 kts 137°
2026-04-23 14:56 22.71034 49.55871 36792 ft 511 kts 137°
2026-04-23 14:56 22.61539 49.67360 36777 ft 511 kts 137°
2026-04-23 14:57 22.53331 49.79870 36787 ft 522 kts 109°
2026-04-23 14:57 22.52313 49.87650 36790 ft 524 kts 89°
2026-04-23 14:57 22.52401 49.95537 36793 ft 523 kts 90°
2026-04-23 14:58 22.51833 50.11213 36793 ft 524 kts 93°
2026-04-23 14:58 22.51039 50.26951 36801 ft 525 kts 93°
2026-04-23 14:59 22.50237 50.42717 36812 ft 525 kts 93°
2026-04-23 14:59 22.49417 50.58512 36794 ft 525 kts 93°
2026-04-23 15:00 22.48583 50.74289 36802 ft 526 kts 92°
2026-04-23 15:00 22.47732 50.90109 36795 ft 526 kts 92°
2026-04-23 15:01 22.46872 51.05805 36801 ft 526 kts 92°
2026-04-23 15:01 22.45992 51.21600 36803 ft 526 kts 92°
2026-04-23 15:02 22.45094 51.37421 36794 ft 526 kts 92°
2026-04-23 15:02 22.44182 51.53227 36794 ft 526 kts 93°
2026-04-23 15:03 22.43261 51.68919 36793 ft 526 kts 93°
2026-04-23 15:03 22.42320 51.84694 36785 ft 526 kts 93°
2026-04-23 15:04 22.41363 52.00481 36787 ft 526 kts 93°
2026-04-23 15:04 22.41256 52.16228 36774 ft 521 kts 76°
2026-04-23 15:05 22.44389 52.31490 36776 ft 520 kts 74°
2026-04-23 15:05 22.47524 52.46784 36772 ft 520 kts 74°
2026-04-23 15:06 22.50621 52.61949 36766 ft 519 kts 74°
2026-04-23 15:06 22.53723 52.77213 36775 ft 519 kts 74°
2026-04-23 15:07 22.56799 52.92430 36767 ft 518 kts 74°
2026-04-23 15:07 22.59343 53.05079 36766 ft 517 kts 74°
2026-04-23 15:08 22.62393 53.20307 36775 ft 517 kts 74°
2026-04-23 15:09 22.66915 53.43034 36770 ft 516 kts 74°
2026-04-23 15:09 22.69927 53.58265 36768 ft 517 kts 74°
2026-04-23 15:10 22.72922 53.73487 36764 ft 517 kts 74°
2026-04-23 15:10 22.75900 53.88707 36768 ft 516 kts 74°
2026-04-23 15:11 22.78880 54.03907 36768 ft 513 kts 73°
2026-04-23 15:11 22.81978 54.19019 36765 ft 514 kts 73°
2026-04-23 15:12 22.85017 54.34023 36759 ft 513 kts 73°
2026-04-23 15:12 22.88065 54.49150 36762 ft 513 kts 73°
2026-04-23 15:13 22.91095 54.64266 36768 ft 513 kts 73°
2026-04-23 15:13 22.94110 54.79383 36772 ft 512 kts 73°
2026-04-23 15:14 22.97113 54.94524 36762 ft 512 kts 73°
2026-04-23 15:14 23.00097 55.09647 36772 ft 511 kts 73°
2026-04-23 15:14 23.01938 55.17037 36788 ft 503 kts 60°
2026-04-23 15:15 23.05814 55.23124 36776 ft 481 kts 36°
2026-04-23 15:15 23.11259 55.26888 36784 ft 454 kts 11°
2026-04-23 15:15 23.17297 55.28565 36791 ft 447 kts
2026-04-23 15:16 23.29386 55.31933 36795 ft 449 kts
2026-04-23 15:16 23.41367 55.35476 36798 ft 449 kts
2026-04-23 15:17 23.53440 55.39048 36805 ft 450 kts
2026-04-23 15:17 23.65537 55.42629 36914 ft 452 kts
2026-04-23 15:17 23.71612 55.44433 37457 ft 451 kts
2026-04-23 15:18 23.77660 55.46232 37971 ft 450 kts
2026-04-23 15:18 23.83704 55.48030 38438 ft 449 kts
2026-04-23 15:18 23.89735 55.49823 38798 ft 449 kts
2026-04-23 15:19 24.01572 55.54169 37926 ft 462 kts 23°
2026-04-23 15:19 24.04880 55.56984 37314 ft 468 kts 34°
2026-04-23 15:19 24.07232 55.59336 36873 ft 462 kts 34°
2026-04-23 15:19 24.09602 55.61688 36453 ft 456 kts 34°
2026-04-23 15:20 24.11936 55.63998 35965 ft 452 kts 35°
2026-04-23 15:20 24.14284 55.66315 35216 ft 455 kts 36°
2026-04-23 15:20 24.16647 55.68645 34439 ft 460 kts 36°
2026-04-23 15:20 24.19037 55.71006 33600 ft 464 kts 37°
2026-04-23 15:21 24.21446 55.73392 32569 ft 470 kts 37°
2026-04-23 15:21 24.23892 55.75818 31401 ft 480 kts 37°
2026-04-23 15:21 24.26391 55.78300 30183 ft 490 kts 37°
2026-04-23 15:21 24.28939 55.80832 28925 ft 498 kts 37°
2026-04-23 15:22 24.31497 55.83379 28068 ft 495 kts 38°
2026-04-23 15:22 24.34035 55.85909 27319 ft 490 kts 38°
2026-04-23 15:22 24.36539 55.88407 26607 ft 485 kts 38°
2026-04-23 15:22 24.39025 55.90886 25881 ft 481 kts 38°
2026-04-23 15:23 24.41496 55.93349 25158 ft 478 kts 39°
2026-04-23 15:23 24.43947 55.95794 24466 ft 474 kts 39°
2026-04-23 15:23 24.46373 55.98214 23676 ft 468 kts 39°
2026-04-23 15:23 24.48775 56.00612 22987 ft 463 kts 39°
2026-04-23 15:24 24.51136 56.02972 22386 ft 456 kts 39°
2026-04-23 15:24 24.53433 56.05270 21795 ft 450 kts 39°
2026-04-23 15:24 24.55739 56.07578 21191 ft 444 kts 40°
2026-04-23 15:24 24.58028 56.09822 20585 ft 438 kts 35°
2026-04-23 15:25 24.60579 56.11591 19986 ft 428 kts 22°
2026-04-23 15:25 24.63343 56.12696 19379 ft 419 kts 10°
2026-04-23 15:25 24.66197 56.13267 18791 ft 413 kts
2026-04-23 15:25 24.69019 56.13778 18208 ft 409 kts
2026-04-23 15:26 24.71824 56.14292 17553 ft 405 kts
2026-04-23 15:26 24.74544 56.14792 17013 ft 398 kts
2026-04-23 15:26 24.77298 56.15211 16449 ft 389 kts 359°
2026-04-23 15:26 24.79929 56.15023 15903 ft 380 kts 346°
2026-04-23 15:27 24.82412 56.14161 15340 ft 369 kts 330°
2026-04-23 15:27 24.84531 56.12604 14098 ft 369 kts 313°
2026-04-23 15:27 24.86114 56.10356 12657 ft 375 kts 296°
2026-04-23 15:27 24.87384 56.07852 11699 ft 372 kts 296°
2026-04-23 15:28 24.88627 56.05368 10834 ft 366 kts 296°
2026-04-23 15:28 24.89850 56.02953 10307 ft 353 kts 296°
2026-04-23 15:28 24.91024 56.00667 10034 ft 333 kts 297°
2026-04-23 15:28 24.92151 55.98486 9491 ft 324 kts 297°
2026-04-23 15:29 24.93247 55.96364 8737 ft 321 kts 297°
2026-04-23 15:29 24.94341 55.94251 8240 ft 311 kts 297°
2026-04-23 15:29 24.95383 55.92246 8029 ft 291 kts 297°
2026-04-23 15:29 24.96367 55.90349 7644 ft 281 kts 297°
2026-04-23 15:30 24.97329 55.88491 7123 ft 277 kts 297°
2026-04-23 15:30 24.98283 55.86646 6593 ft 277 kts 297°
2026-04-23 15:30 24.99240 55.84793 5988 ft 278 kts 297°
2026-04-23 15:30 25.00194 55.82944 5402 ft 276 kts 298°
2026-04-23 15:31 25.01141 55.81111 4890 ft 273 kts 298°
2026-04-23 15:31 25.02067 55.79319 4625 ft 267 kts 298°
2026-04-23 15:31 25.03004 55.77510 4444 ft 271 kts 297°
2026-04-23 15:31 25.03924 55.75735 4282 ft 266 kts 296°
2026-04-23 15:32 25.04728 55.73905 4142 ft 268 kts 294°
2026-04-23 15:32 25.05563 55.72111 4047 ft 257 kts 297°
2026-04-23 15:32 25.06435 55.70461 4032 ft 240 kts 299°
2026-04-23 15:32 25.07272 55.68952 4027 ft 222 kts 300°
2026-04-23 15:33 25.08046 55.67556 4035 ft 206 kts 300°
2026-04-23 15:33 25.08766 55.66257 4030 ft 191 kts 300°
2026-04-23 15:33 25.09464 55.64996 4042 ft 198 kts 300°
2026-04-23 15:33 25.10181 55.63704 4038 ft 194 kts 300°
2026-04-23 15:34 25.10880 55.62445 4035 ft 192 kts 300°
2026-04-23 15:34 25.11583 55.61177 4034 ft 194 kts 300°
2026-04-23 15:34 25.12281 55.59917 3993 ft 195 kts 300°
2026-04-23 15:34 25.12998 55.58623 3795 ft 195 kts 300°
2026-04-23 15:35 25.13693 55.57370 3604 ft 187 kts 301°
2026-04-23 15:35 25.14354 55.56179 3348 ft 181 kts 301°
2026-04-23 15:35 25.15002 55.55008 3112 ft 176 kts 302°
2026-04-23 15:35 25.15634 55.53867 2882 ft 172 kts 302°
2026-04-23 15:36 25.16253 55.52752 2666 ft 169 kts 302°
2026-04-23 15:36 25.16849 55.51670 2445 ft 158 kts 304°
2026-04-23 15:36 25.17400 55.50677 2247 ft 145 kts 306°
2026-04-23 15:36 25.17914 55.49750 2073 ft 147 kts 306°
2026-04-23 15:37 25.18441 55.48800 1890 ft 142 kts 306°
2026-04-23 15:37 25.18954 55.47872 1713 ft 143 kts 306°
2026-04-23 15:37 25.19308 55.47235 1602 ft 145 kts 306°
2026-04-23 15:37 25.19976 55.46024 1354 ft 132 kts 306°
2026-04-23 15:38 25.20447 55.45175 1187 ft 130 kts 306°
2026-04-23 15:38 25.20912 55.44336 1023 ft 125 kts 306°
2026-04-23 15:38 25.21367 55.43515 872 ft 125 kts 306°
2026-04-23 15:38 25.21818 55.42702 719 ft 124 kts 305°
2026-04-23 15:39 25.22277 55.41873 566 ft 129 kts 305°
2026-04-23 15:39 25.22730 55.41041 376 ft 122 kts 304°
2026-04-23 15:39 25.23175 55.40228 241 ft 126 kts 303°
2026-04-23 15:39 25.23611 55.39446 68 ft 123 kts 304°
2026-04-23 15:40 25.24019 55.38709 25 ft 75 kts 301°
2026-04-23 15:40 25.24170 55.38438 26 ft 30 kts 302°
2026-04-23 15:40 25.24281 55.38236 26 ft 30 kts 302°
2026-04-23 15:40 25.24267 55.38097 26 ft 21 kts 219°
2026-04-23 15:41 25.24229 55.38070 23 ft 0 kts 210°
2026-04-23 15:41 25.24228 55.38070 22 ft 0 kts 209°
2026-04-23 15:41 25.24227 55.38069 22 ft 1 kts 209°
2026-04-23 15:42 25.24199 55.38052 22 ft 8 kts 209°
2026-04-23 15:42 25.24193 55.38046 22 ft 0 kts 227°
2026-04-23 15:42 25.24193 55.38026 22 ft 7 kts 276°
2026-04-23 15:42 25.24229 55.37969 22 ft 11 kts 306°
2026-04-23 15:43 25.24273 55.37882 21 ft 14 kts 301°
2026-04-23 15:43 25.24330 55.37784 21 ft 16 kts 302°
2026-04-23 15:43 25.24396 55.37668 22 ft 19 kts 302°
2026-04-23 15:43 25.24471 55.37537 22 ft 21 kts 303°
2026-04-23 15:44 25.24550 55.37395 24 ft 23 kts 302°
2026-04-23 15:44 25.24637 55.37239 21 ft 24 kts 302°
2026-04-23 15:44 25.24726 55.37084 22 ft 26 kts 302°
2026-04-23 15:44 25.24821 55.36911 22 ft 27 kts 300°
2026-04-23 15:45 25.24879 55.36711 23 ft 28 kts 287°
2026-04-23 15:45 25.24975 55.36521 21 ft 29 kts 302°
2026-04-23 15:45 25.25084 55.36331 21 ft 30 kts 303°
2026-04-23 15:45 25.25189 55.36134 22 ft 30 kts 305°
2026-04-23 15:46 25.25300 55.35936 23 ft 31 kts 302°
2026-04-23 15:46 25.25418 55.35735 22 ft 31 kts 304°
2026-04-23 15:46 25.25532 55.35527 22 ft 32 kts 302°
2026-04-23 15:46 25.25652 55.35319 21 ft 33 kts 302°
2026-04-23 15:47 25.25762 55.35114 23 ft 30 kts 300°
2026-04-23 15:47 25.25874 55.34914 23 ft 31 kts 302°
2026-04-23 15:47 25.25991 55.34710 23 ft 32 kts 303°
2026-04-23 15:47 25.26073 55.34562 21 ft 16 kts 302°
2026-04-23 15:48 25.26137 55.34448 23 ft 19 kts 302°
2026-04-23 15:48 25.26162 55.34401 21 ft 3 kts 301°
2026-04-23 15:48 25.26159 55.34373 21 ft 5 kts 230°
2026-04-23 15:48 25.26118 55.34344 22 ft 9 kts 212°
2026-04-23 15:49 25.26076 55.34314 21 ft 12 kts 212°
2026-04-23 15:49 25.26024 55.34278 21 ft 9 kts 212°
2026-04-23 15:49 25.26016 55.34273 21 ft 1 kts 209°
2026-04-23 15:49 25.26009 55.34270 21 ft 1 kts 206°
2026-04-23 15:50 25.26008 55.34269 21 ft 0 kts 206°
2026-04-23 15:50 25.26008 55.34270 21 ft 0 kts 211°